[[{"header":{"parameterUnit":"m.s-1","parameterCategory":1,"la1":30.2991,"la2":30.254,"lo1":-89.0895,"lo2":-89.0444,"dy":0.0017,"dx":0.0017,"nx":28,"ny":28,"refTime":"2024-07-04T21:00:00:Z","depth":0,"parameterNumber":2,"parameterNumberName":"U-component_of_WINDS"},"data":[0,0,0,0,0,0,0,0,0,0,0,0,0,0,0,0,0,0,0,0,0,0,0,0,0,0,0,0,0,0,0,0,0,0,0,0,0,0,0,0,0,0,0,0,0,0,0,0,0,0,0,0,0,0,0,0,0,0,3.304,3.3041,0,3.3174,3.3175,3.3177,3.318,3.3179,3.3177,3.3176,3.3317,3.3322,3.3327,0,0,0,0,0,0,0,0,0,0,0,0,0,3.2794,3.2798,3.304,3.3041,3.3043,3.3173,3.3175,3.3177,3.3181,3.3179,3.3177,3.3175,3.3315,3.3322,3.3328,0,0,0,0,0,0,0,0,0,0,0,0,0,3.2911,3.2799,3.3039,3.3061,3.3064,3.3173,3.3175,3.3177,3.3181,3.3179,3.3176,3.3174,3.3313,3.3321,3.3329,3.3427,0,0,3.3353,3.3357,0,0,0,0,0,0,0,0,3.2905,3.292,3.3056,3.3059,3.3063,3.3158,3.314,3.3261,3.3182,3.3137,3.3176,3.3173,3.3266,3.3278,3.3309,3.3434,3.344,3.3354,3.3359,3.3362,3.3364,0,0,0,0,0,0,0,3.2896,3.2915,3.3093,3.3058,3.3062,3.3065,3.3079,3.3163,3.3214,3.314,3.3141,3.3157,3.3268,3.3301,3.3312,3.3442,3.3354,3.3361,3.3366,3.3369,3.3658,3.3661,0,0,0,0,0,0,3.2883,3.2908,3.3089,3.3097,3.2976,3.3072,3.3087,3.313,3.3213,3.3223,3.3159,3.3156,3.3289,3.3303,3.3317,3.3439,3.3362,3.3369,3.3374,3.3655,3.3659,3.3662,0,0,0,0,0,0,3.2878,3.2899,3.3083,3.3003,3.3026,3.3079,3.3126,3.3134,3.3167,3.3227,3.3236,3.3183,3.3287,3.3306,3.34,3.3444,3.3373,3.338,3.3652,3.3656,3.366,3.3683,0,0,0,0,0,0,3.2871,3.2897,3.2934,3.3003,3.303,3.3162,3.3129,3.3138,3.318,3.3178,3.3252,3.3262,3.3287,3.3388,3.3408,3.3454,3.3386,3.3648,3.3654,3.3659,3.3679,3.3688,3.3696,0,0,0,0,0,3.2862,3.2935,3.2936,3.2957,3.3077,3.3165,3.318,3.3206,3.3183,3.3222,3.3261,3.3259,3.3436,3.3398,3.342,3.3469,3.3645,3.3652,3.3658,3.3675,3.3686,3.3696,0,0,0,0,0,0,3.287,3.2945,3.2946,3.3043,3.3098,3.3165,3.3214,3.3217,3.328,3.3276,3.3307,3.3324,3.3418,3.3453,3.3409,3.357,3.3538,3.355,3.3544,3.3555,3.3563,3.3552,3.3393,0,0,0,0,0,3.2883,3.2947,3.3009,3.309,3.3117,3.3161,3.32,3.3216,3.3274,3.3297,3.3342,3.34,3.3469,3.3514,3.358,3.3684,3.3702,3.3729,3.3738,3.3744,3.3754,3.3814,3.3827,3.3683,3.3683,3.3683,0,0,3.2911,3.296,3.2998,3.3093,3.3136,3.3204,3.318,3.3251,3.3302,3.3308,3.34,3.3436,3.3503,3.3603,3.3649,3.3635,3.3798,3.3753,3.3758,3.3764,3.3822,3.3835,3.3848,3.3688,3.3687,3.3686,0,0,3.2996,3.3039,3.3111,3.3156,3.3222,3.3251,3.3269,3.3337,3.3361,3.3453,3.346,3.3522,3.3639,3.3687,3.3727,3.3833,3.3835,3.3854,3.3898,3.3956,3.3967,3.3978,3.4017,3.403,3.3863,3.3863,3.3863,0,3.3023,3.3122,3.3148,3.322,3.3263,3.3271,3.3346,3.3388,3.3474,3.3504,3.3486,3.3635,3.3681,3.3793,3.3819,3.3851,3.3874,3.3845,3.3963,3.3974,3.3984,3.4022,3.4036,3.3865,3.3865,3.3865,3.3865,0,3.3153,3.3222,3.3273,3.3354,3.3403,3.3476,3.3515,3.3561,3.3573,3.3605,3.3701,3.3756,3.3835,3.3863,3.3875,3.3978,3.3967,3.3956,3.3925,3.3999,3.4035,3.405,3.3868,3.3867,3.3867,3.3866,0,0,3.3245,3.3341,3.3359,3.3398,3.3473,3.3528,3.3603,3.3679,3.3719,3.3779,3.3844,3.3944,3.3935,3.398,3.3999,3.405,3.4132,3.4033,3.4035,3.405,3.4251,3.4258,3.4275,3.4134,3.4137,3.414,3.4245,0,3.3339,3.347,3.3497,3.3611,3.3677,3.3687,3.3753,3.3808,3.384,3.3902,3.3939,3.401,3.3992,3.402,3.407,3.4111,3.4173,3.4104,3.4197,3.42,3.4179,3.4293,3.4301,3.4398,3.426,3.4262,3.4264,0,3.3465,3.3527,3.3648,3.3717,3.3746,3.3804,3.3877,3.3936,3.3999,3.4019,3.4071,3.4085,3.4165,3.4131,3.4244,3.4196,3.4236,3.4262,3.4267,3.4276,3.4236,3.4307,3.443,3.4445,3.4286,3.4284,3.4283,0,3.3521,3.3636,3.3723,3.3756,3.3837,3.3879,3.3915,3.3976,3.4021,3.4085,3.4115,3.4189,3.423,3.4287,3.4322,3.4293,3.4433,3.44,3.4454,3.4453,3.4482,3.448,3.4614,3.4507,3.4507,3.4507,3.4507,0,3.3623,3.3697,3.375,3.3804,3.3888,3.3919,3.4002,3.4039,3.4093,3.4156,3.417,3.4229,3.4271,3.4337,3.4364,3.4455,3.4473,3.4493,3.4499,3.4492,3.4489,3.4518,3.4512,3.4511,3.451,3.4509,3.4509,0,3.37,3.3738,3.3834,3.3905,3.3924,3.3983,3.4044,3.4099,3.4132,3.4211,3.4232,3.4285,3.4363,3.4403,3.4501,3.452,3.4622,3.4624,3.46,3.4603,3.4654,3.4649,3.4811,3.4835,3.4712,3.4713,3.4714,0,3.3762,3.382,3.3896,3.3939,3.3976,3.4044,3.409,3.4125,3.4172,3.425,3.4296,3.4374,3.4439,3.4564,3.4613,3.4688,3.4693,3.4745,3.4704,3.4695,3.4695,3.4691,3.4697,3.4752,3.4753,3.4754,3.4755,0,3.387,3.3886,3.3951,3.4024,3.4078,3.4137,3.4195,3.423,3.4274,3.4327,3.4407,3.4457,3.4557,3.4636,3.4716,3.4756,3.4764,3.4767,3.4784,3.4776,3.476,3.477,3.462,3.4763,3.4762,3.4762,3.4761,3.4761,3.3942,3.3994,3.4056,3.4129,3.4177,3.4231,3.4286,3.4326,3.4393,3.4476,3.4493,3.4578,3.4643,3.475,3.4793,3.4861,3.485,3.4874,3.488,3.4885,3.4888,3.4749,3.4876,3.4876,3.4876,3.4875,3.4875,0,3.4051,3.4092,3.4158,3.4239,3.4297,3.4299,3.4364,3.4413,3.4487,3.4546,3.461,3.4703,3.478,3.4835,3.4914,3.4958,3.4964,3.4978,3.4975,3.4984,3.4893,3.4871,3.4972,3.4972,3.4972,3.4972,3.4972,3.4972,3.4114,3.4203,3.4227,3.434,3.4382,3.4464,3.4501,3.4553,3.46,3.4703,3.4767,3.4802,3.486,3.4944,3.5016,3.503,3.5059,3.5073,3.5088,3.5001,3.4991,3.4981,3.496,3.5079,3.5079,3.5174,3.5174,3.5175]},{"header":{"parameterUnit":"m.s-1","parameterCategory":1,"la1":30.2991,"la2":30.254,"lo1":-89.0895,"lo2":-89.0444,"dy":0.0017,"dx":0.0017,"nx":28,"ny":28,"refTime":"2024-07-04T21:00:00:Z","depth":0,"parameterNumber":3,"parameterNumberName":"V-component_of_WINDS"},"data":[0,0,0,0,0,0,0,0,0,0,0,0,0,0,0,0,0,0,0,0,0,0,0,0,0,0,0,0,0,0,0,0,0,0,0,0,0,0,0,0,0,0,0,0,0,0,0,0,0,0,0,0,0,0,0,0,0,0,1.6417,1.6418,0,1.6521,1.6523,1.6524,1.6585,1.6585,1.6586,1.6586,1.669,1.6693,1.6695,0,0,0,0,0,0,0,0,0,0,0,0,0,1.6267,1.627,1.6417,1.6418,1.642,1.6521,1.6523,1.6524,1.6585,1.6585,1.6586,1.6586,1.669,1.6692,1.6696,0,0,0,0,0,0,0,0,0,0,0,0,0,1.6348,1.627,1.6417,1.6463,1.6468,1.6521,1.6523,1.6524,1.6585,1.6585,1.6586,1.6586,1.6689,1.6692,1.6696,1.6711,0,0,1.6708,1.6709,0,0,0,0,0,0,0,0,1.6343,1.6353,1.6455,1.6459,1.6465,1.6541,1.6508,1.6587,1.6585,1.654,1.6586,1.6586,1.664,1.6648,1.6667,1.6716,1.6721,1.6708,1.671,1.6712,1.6713,0,0,0,0,0,0,0,1.6337,1.6349,1.6458,1.6456,1.6462,1.6476,1.6488,1.6523,1.6587,1.6544,1.6549,1.6561,1.6643,1.6663,1.6669,1.6722,1.6708,1.6711,1.6713,1.6715,1.6787,1.6786,0,0,0,0,0,0,1.6325,1.6344,1.6455,1.6462,1.6404,1.6479,1.6492,1.6516,1.6586,1.6598,1.656,1.6563,1.6656,1.6665,1.6673,1.6694,1.6712,1.6715,1.6718,1.6787,1.6787,1.6786,0,0,0,0,0,0,1.6322,1.6334,1.6451,1.6404,1.642,1.6481,1.6507,1.6518,1.6538,1.6599,1.661,1.6569,1.6657,1.6668,1.6701,1.6699,1.6717,1.6721,1.6788,1.6787,1.6787,1.6737,0,0,0,0,0,0,1.6317,1.6333,1.6341,1.6404,1.6422,1.6478,1.6507,1.652,1.6544,1.6549,1.661,1.662,1.6658,1.6695,1.6705,1.6704,1.6723,1.6788,1.6787,1.6787,1.6739,1.6735,1.6731,0,0,0,0,0,1.6312,1.6323,1.6341,1.6354,1.6433,1.6478,1.6488,1.6532,1.6544,1.6551,1.659,1.6618,1.6697,1.6698,1.6709,1.671,1.6788,1.6788,1.6787,1.6741,1.6736,1.6731,0,0,0,0,0,0,1.6258,1.6332,1.6353,1.6385,1.6424,1.6488,1.6499,1.6526,1.6563,1.6565,1.6618,1.6631,1.6658,1.6688,1.6687,1.6727,1.6746,1.6747,1.6707,1.6703,1.6699,1.6691,1.6727,0,0,0,0,0,1.6249,1.628,1.6343,1.6365,1.6384,1.6438,1.6459,1.6489,1.6532,1.6549,1.659,1.663,1.6664,1.6685,1.672,1.6744,1.6756,1.675,1.6745,1.6742,1.6742,1.6755,1.6752,1.6784,1.6784,1.6784,0,0,1.6233,1.6277,1.6294,1.6356,1.639,1.6419,1.6452,1.6482,1.6504,1.6554,1.6587,1.6618,1.6666,1.6694,1.6708,1.6719,1.6736,1.6741,1.6738,1.674,1.6754,1.675,1.6748,1.6783,1.6783,1.6783,0,0,1.6218,1.6255,1.6277,1.631,1.6361,1.6397,1.6401,1.646,1.6483,1.6517,1.6555,1.658,1.6638,1.667,1.6693,1.6686,1.6713,1.6696,1.6675,1.6687,1.6684,1.6682,1.6678,1.6676,1.6696,1.6696,1.6696,0,1.6191,1.6238,1.6284,1.6312,1.6337,1.6383,1.6404,1.6434,1.6493,1.6509,1.652,1.6592,1.6627,1.6662,1.666,1.6678,1.6684,1.669,1.6681,1.668,1.6678,1.6675,1.6673,1.6694,1.6694,1.6694,1.6695,0,1.6201,1.6232,1.6243,1.6299,1.6326,1.635,1.6398,1.6419,1.6446,1.6479,1.6512,1.6556,1.6599,1.6609,1.6636,1.6647,1.6652,1.6671,1.6691,1.6672,1.6669,1.6669,1.669,1.6691,1.6692,1.6693,0,0,1.6157,1.6236,1.624,1.6264,1.6323,1.6347,1.6372,1.6414,1.643,1.6469,1.649,1.6536,1.6554,1.658,1.6611,1.6621,1.661,1.6639,1.6641,1.6631,1.6622,1.6606,1.6604,1.6628,1.6628,1.6628,1.6617,0,1.6149,1.6198,1.6239,1.6271,1.6299,1.6341,1.6363,1.64,1.6431,1.6458,1.6492,1.6523,1.6545,1.6561,1.6573,1.6609,1.6608,1.661,1.6646,1.6647,1.6632,1.6603,1.6587,1.6575,1.6616,1.6616,1.6616,0,1.6148,1.6184,1.6219,1.6272,1.6285,1.6304,1.6344,1.6371,1.6412,1.6434,1.6462,1.6493,1.6519,1.6536,1.6571,1.6571,1.6588,1.6607,1.6608,1.6612,1.663,1.6605,1.6573,1.657,1.6616,1.6616,1.6616,0,1.611,1.6168,1.6196,1.6216,1.6279,1.629,1.6317,1.6359,1.6381,1.6415,1.643,1.6467,1.6487,1.6514,1.6554,1.6562,1.6584,1.6604,1.6601,1.6599,1.6603,1.6602,1.6572,1.6615,1.6615,1.6615,1.6615,0,1.6098,1.6117,1.6179,1.6196,1.6218,1.6264,1.6284,1.6314,1.635,1.6372,1.6411,1.6431,1.6482,1.6507,1.6538,1.6561,1.6571,1.6587,1.6595,1.6584,1.6581,1.6595,1.6596,1.6615,1.6615,1.6615,1.6615,0,1.606,1.6103,1.6135,1.6191,1.6206,1.6219,1.6266,1.6283,1.6315,1.6342,1.6351,1.6401,1.6432,1.6474,1.6519,1.654,1.6558,1.6571,1.6544,1.6549,1.6542,1.6541,1.6518,1.6517,1.6562,1.6561,1.6561,0,1.6049,1.6065,1.6122,1.6139,1.6164,1.6193,1.6214,1.6259,1.628,1.6327,1.6337,1.6371,1.6401,1.6448,1.6488,1.6521,1.6535,1.6524,1.654,1.6527,1.6533,1.6531,1.6531,1.652,1.6519,1.6519,1.6518,0,1.6024,1.6044,1.6075,1.6111,1.6136,1.6167,1.62,1.6212,1.6263,1.6284,1.6316,1.6339,1.6383,1.6416,1.6454,1.648,1.6506,1.6513,1.6514,1.6501,1.6484,1.6492,1.6532,1.6513,1.6514,1.6514,1.6514,1.6515,1.5999,1.6014,1.6055,1.6087,1.6116,1.6145,1.6163,1.6196,1.6224,1.6264,1.6288,1.6318,1.6357,1.641,1.6435,1.6458,1.6469,1.647,1.647,1.647,1.6465,1.6481,1.6465,1.6465,1.6465,1.6466,1.6466,0,1.5975,1.6003,1.6032,1.6076,1.61,1.6123,1.616,1.6178,1.6204,1.6238,1.6266,1.6301,1.6332,1.6372,1.6406,1.6416,1.6429,1.6423,1.6423,1.6427,1.6454,1.645,1.6412,1.6412,1.6412,1.6412,1.6412,1.6412,1.5966,1.5991,1.6015,1.6053,1.6081,1.6112,1.613,1.6156,1.6183,1.622,1.6246,1.6272,1.6308,1.6344,1.6372,1.6383,1.6393,1.6383,1.6397,1.6421,1.6426,1.6431,1.6426,1.6385,1.6385,1.6368,1.6368,1.6368]}]]